Wind_Speed
10 9 9 9 9 9 9 9 9 8 8 8 8 8 8 8 8 7 7 7 8 8 8 7 7 7 7 7 7 6 6 6 6 6 6 6 5 5 5 6 6 6 6 6 6 6 6 7 6 7 7 7 7 6 6 7 6 8 8 10 12 9 8 11 12 13 17 18 20 22 19 16 17 18 13 13 14 15 16 16 16 17 17 18 18 21 21 20
11 11 10 10 10 10 10 10 10 10 10 10 9 9 9 9 9 8 8 8 8 8 9 9 9 9 9 9 9 9 8 8 8 7 7 7 7 6 7 7 7 7 7 7 7 7 7 8 8 8 8 8 8 7 8 8 8 10 9 12 12 9 10 14 16 19 21 20 19 21 22 17 17 20 17 14 15 16 17 15 14 17 17 17 17 21 21 19
12 12 11 12 12 11 11 11 11 11 11 11 11 10 10 10 10 10 9 9 9 9 9 10 10 10 11 11 11 11 10 10 10 8 8 9 8 8 8 8 8 8 8 8 8 8 9 9 10 10 10 10 9 9 10 9 9 11 12 14 13 11 14 16 20 22 21 20 19 20 23 21 18 21 21 17 18 20 18 14 15 17 17 19 19 20 20 18
13 13 13 13 13 13 13 12 12 12 12 12 12 12 11 11 11 11 11 11 11 11 11 11 11 11 12 12 12 12 12 12 11 8 9 9 8 9 10 10 10 10 9 9 9 9 9 9 10 11 11 11 13 12 11 11 11 13 15 15 14 14 17 18 21 23 21 21 21 20 23 24 21 22 22 20 21 22 19 17 19 18 18 21 21 20 20 18
15 14 14 14 14 14 14 14 14 13 13 13 13 12 12 12 12 12 12 12 12 12 12 12 12 13 13 13 13 14 13 12 9 7 7 7 10 11 11 11 11 11 11 11 10 10 10 10 10 11 12 11 13 14 14 13 12 15 17 17 17 18 20 20 21 22 20 22 22 21 24 24 24 24 23 24 24 19 18 20 22 22 22 22 21 19 18 17
16 16 16 16 15 15 15 15 15 15 15 14 14 14 13 13 12 13 12 13 13 13 13 13 14 14 14 14 14 14 14 12 9 9 9 10 12 13 13 12 12 12 12 12 12 12 11 12 12 12 13 12 12 14 15 17 16 18 19 18 19 20 22 22 23 24 22 23 23 22 24 23 25 25 23 25 22 16 17 21 22 22 24 24 22 19 18 18
17 17 17 17 17 17 17 17 17 17 17 16 16 15 15 15 14 14 13 14 14 14 14 14 14 15 15 16 16 16 16 13 12 14 14 13 13 14 14 13 13 13 13 14 14 14 14 14 14 13 15 13 12 12 14 19 20 21 22 19 19 22 23 23 25 25 23 24 24 24 25 23 25 26 25 23 19 16 16 19 20 20 22 24 23 21 21 21
18 18 18 18 18 19 18 18 18 18 18 18 18 17 17 16 16 16 15 15 15 15 15 15 15 15 16 17 17 18 17 14 13 16 15 14 15 15 15 14 14 14 15 15 15 16 16 16 15 16 17 15 14 14 15 21 23 24 23 20 22 24 24 23 25 26 24 25 26 27 27 24 24 27 27 19 15 15 14 17 19 19 21 23 23 22 23 23
19 19 20 20 20 20 20 20 20 20 20 20 20 20 19 19 18 18 17 17 17 17 17 17 17 17 18 17 19 19 17 14 14 16 16 16 16 16 16 15 15 16 16 17 17 17 17 17 18 18 18 17 18 18 18 23 25 24 23 23 26 27 25 24 26 27 26 27 29 29 28 25 24 29 28 15 12 14 13 16 19 20 22 23 24 23 23 24
20 20 21 21 21 21 21 21 21 21 21 21 22 22 22 21 21 20 20 20 19 19 19 19 19 19 19 18 21 21 16 15 16 16 16 16 17 17 17 17 17 18 18 18 18 19 19 19 20 20 20 20 21 21 21 23 25 24 24 27 28 28 27 26 28 29 29 29 30 30 28 26 25 31 28 15 13 15 14 17 19 22 23 22 25 25 25 26
21 21 21 22 22 22 22 22 23 22 22 23 23 23 24 24 23 23 23 22 22 21 21 21 21 22 22 21 23 22 17 17 18 18 18 18 18 19 19 20 20 20 19 20 19 19 20 20 20 21 21 22 22 23 24 24 25 24 26 29 29 29 29 28 29 29 28 29 29 29 29 28 28 32 27 19 18 18 17 18 19 22 21 20 24 26 27 27
22 21 21 22 22 23 23 24 24 24 24 24 24 24 25 25 25 25 25 25 25 24 24 24 24 24 25 25 25 23 20 20 21 20 20 20 20 21 21 22 22 22 21 21 21 20 20 21 21 21 21 23 24 24 26 26 26 27 28 31 32 32 31 28 27 27 25 26 25 26 29 29 31 33 28 23 24 23 22 21 19 21 22 22 24 26 29 29
23 23 23 22 22 23 23 24 24 25 25 24 25 25 26 27 27 27 27 27 27 27 27 27 27 27 28 28 26 24 24 23 23 22 21 21 22 22 23 24 24 24 23 23 23 21 21 22 22 22 23 24 25 25 27 27 28 30 29 31 34 34 33 28 26 25 23 25 24 23 29 32 30 32 30 26 28 27 26 24 22 23 24 24 25 26 29 30
25 25 24 24 23 23 24 24 25 25 25 25 25 25 27 27 28 28 28 28 28 29 29 29 30 30 32 31 27 27 27 25 24 23 22 23 24 24 25 25 25 25 25 25 25 23 23 23 23 24 24 25 26 27 29 29 30 32 30 30 32 33 33 30 28 26 23 26 25 22 31 36 30 29 30 28 29 29 28 28 27 28 27 25 25 26 28 30
27 27 26 26 25 25 25 25 25 25 25 25 25 26 26 27 28 29 29 29 29 30 30 31 32 32 35 33 29 29 29 27 27 25 24 26 26 27 27 27 27 27 27 26 26 25 25 25 25 25 24 26 27 29 30 29 31 32 29 29 30 30 31 30 28 28 24 25 24 22 30 38 33 29 29 29 30 31 33 34 31 31 31 28 26 27 28 30
30 29 29 28 28 27 27 27 27 26 26 26 26 26 26 27 28 28 29 30 30 30 30 32 32 32 35 34 30 29 28 27 26 25 25 27 28 29 29 28 29 28 27 27 26 26 27 27 27 26 27 28 29 31 30 27 32 32 27 27 28 29 28 27 27 29 26 26 26 27 32 39 38 32 30 30 33 35 37 38 35 33 33 31 29 29 31 32
32 32 31 31 30 30 29 29 28 27 27 27 27 27 27 28 29 29 30 30 31 31 31 32 33 34 35 33 31 30 28 27 27 26 26 27 28 30 29 29 28 27 28 28 28 29 29 29 30 29 29 30 30 31 24 22 32 32 25 24 25 27 26 25 28 27 24 27 28 29 35 43 43 38 32 30 34 38 41 41 38 34 34 33 31 31 35 35
33 33 33 33 33 32 32 31 30 30 29 29 29 29 28 30 30 31 32 32 33 33 33 34 33 35 35 31 29 28 26 25 25 25 25 27 29 30 32 32 32 32 32 32 32 32 31 32 32 31 32 34 34 32 28 29 35 33 28 27 26 28 28 28 31 29 28 32 31 29 38 46 45 41 36 31 33 39 43 43 40 37 35 34 32 33 34 31
32 33 33 34 34 34 34 33 32 32 31 30 31 31 30 31 31 33 34 34 35 35 35 34 34 34 33 30 28 27 26 25 25 25 24 25 27 29 31 32 33 34 34 34 34 33 32 33 34 34 36 38 37 37 38 38 37 33 32 32 31 31 33 37 39 36 34 36 36 36 42 45 44 42 39 36 36 39 43 44 43 41 39 37 35 33 29 26
30 31 32 33 34 35 35 34 34 33 33 32 32 32 32 32 33 34 35 36 36 36 35 35 37 37 35 35 33 31 30 30 29 29 28 29 30 31 32 32 34 34 34 35 35 33 34 37 38 39 40 39 38 38 38 38 34 32 31 32 33 33 38 46 44 39 36 35 39 41 43 44 44 44 42 41 40 41 43 43 43 43 42 39 35 30 26 25
29 30 30 31 32 34 35 34 34 34 34 34 33 34 34 34 35 35 37 39 37 36 37 37 39 40 38 38 36 34 33 32 32 31 30 31 33 35 36 37 38 40 39 37 36 37 38 42 45 43 41 40 40 38 34 32 32 30 29 31 33 37 45 48 44 40 39 38 41 42 41 43 45 46 45 44 45 45 44 42 42 42 39 36 32 29 26 26
30 30 29 29 30 31 33 33 33 33 33 33 33 34 35 35 36 37 39 43 41 38 39 38 39 41 39 38 38 35 35 36 35 34 32 32 34 36 38 40 41 43 42 37 37 40 43 47 49 44 40 41 41 40 36 35 36 35 35 36 38 43 47 47 44 41 38 38 40 39 39 43 46 48 48 48 49 48 45 42 40 38 35 33 30 28 27 27
32 31 30 30 30 30 30 30 30 31 31 31 32 33 34 34 36 37 40 46 47 42 41 41 41 42 39 39 38 35 37 39 37 37 32 32 38 38 39 43 43 43 41 40 42 44 46 47 47 41 39 41 42 40 37 38 41 41 40 39 42 47 44 42 44 40 37 37 37 38 43 48 50 51 51 49 47 45 41 38 36 36 35 31 29 28 27 27
33 32 32 31 31 31 30 29 29 29 28 29 29 30 32 33 34 36 39 46 51 47 43 42 43 44 40 38 37 35 39 40 39 39 34 34 39 38 40 44 43 43 43 42 43 47 50 46 42 41 41 43 44 40 36 37 45 46 41 39 45 48 44 43 43 37 35 37 38 40 43 48 49 49 51 47 42 41 37 36 36 36 34 30 28 27 24 25
34 34 34 33 32 33 32 31 30 29 28 27 27 28 29 30 31 34 37 43 50 51 46 44 44 44 41 39 38 37 40 42 41 40 37 37 39 40 43 42 43 46 45 43 43 46 49 44 40 42 43 43 44 43 38 39 47 48 42 42 46 46 43 41 39 34 32 34 35 30 24 32 40 40 45 46 41 40 39 39 40 37 34 32 27 21 21 26
35 34 34 34 34 34 33 32 31 30 29 27 27 27 27 28 29 30 34 40 47 47 41 39 38 37 37 38 38 36 38 44 43 41 41 40 39 42 45 45 46 47 45 42 41 44 43 39 40 42 42 42 42 43 41 40 45 47 44 43 43 42 41 38 37 32 27 25 23 14 9 27 42 39 40 43 40 42 43 42 42 38 36 32 22 18 21 24
33 33 33 33 33 34 33 32 32 31 30 28 28 27 27 27 27 27 29 30 32 31 25 21 22 27 32 32 31 31 34 39 39 37 39 38 39 42 46 49 49 47 46 40 37 41 40 37 39 40 40 41 40 41 40 37 39 45 44 40 38 37 36 34 34 32 30 31 28 20 16 28 46 45 38 40 39 39 43 43 42 38 32 28 21 21 19 14
30 31 31 31 31 32 32 31 32 32 30 30 29 27 27 26 26 25 20 12 10 13 12 8 10 15 19 19 20 25 29 33 31 28 28 28 32 38 42 47 48 48 46 39 40 45 43 39 40 40 39 39 40 40 38 35 37 42 41 37 34 33 33 33 33 32 32 32 24 21 18 18 38 47 31 27 31 34 41 40 36 32 27 28 26 22 15 10
30 30 29 29 29 29 30 29 29 29 29 28 27 26 26 25 24 22 15 10 9 13 15 13 13 12 12 15 16 20 25 27 27 26 24 25 29 34 37 40 41 44 43 40 45 46 41 41 41 41 39 38 40 39 37 37 38 40 39 37 33 31 32 31 32 32 28 24 18 18 17 12 32 49 29 17 23 28 35 30 26 28 27 28 28 23 18 15
31 31 30 29 29 28 29 28 27 29 28 26 25 26 25 23 22 16 11 14 14 15 17 17 18 15 14 17 19 21 25 26 28 28 27 28 30 33 36 36 34 36 37 38 43 43 40 43 42 40 40 40 40 38 38 39 38 39 38 36 33 30 32 29 31 28 16 19 24 24 27 21 21 32 20 18 23 24 26 21 21 28 27 26 28 28 28 26
34 34 34 33 31 31 32 29 28 30 29 27 26 25 23 22 20 12 11 21 22 22 26 24 23 22 21 22 23 24 26 27 29 29 30 31 32 35 37 35 32 32 34 39 43 42 41 43 43 42 41 41 41 41 42 41 40 39 36 34 29 23 23 19 17 14 4 13 22 18 23 26 24 19 10 11 15 13 16 14 14 22 27 31 35 35 36 35
38 38 39 39 38 37 37 34 34 33 32 31 28 26 23 18 19 25 27 25 17 16 25 25 24 24 21 21 24 26 28 29 30 29 30 31 33 37 38 37 36 30 30 36 39 39 41 43 41 40 41 41 41 42 43 42 41 41 38 32 18 8 9 6 4 4 8 19 25 19 16 25 40 43 29 22 20 18 22 16 16 18 29 37 42 39 38 37
39 40 41 43 42 41 40 39 39 36 33 31 27 26 21 11 21 40 40 29 18 15 20 20 19 18 17 21 25 26 27 28 30 28 30 33 37 40 39 39 40 33 30 33 32 28 30 36 38 38 39 39 40 41 41 42 41 42 42 34 18 6 2 4 5 3 10 22 28 27 21 21 34 42 37 35 34 32 32 23 22 23 33 39 42 38 35 36
41 41 42 44 45 42 41 41 39 35 32 30 28 24 19 17 33 42 32 27 27 26 27 26 24 22 23 27 27 27 27 28 30 29 30 35 39 41 42 42 41 40 39 37 34 26 19 28 39 37 34 36 39 38 36 38 41 43 42 34 28 21 10 4 6 6 8 15 20 16 14 13 19 25 26 28 30 30 30 26 28 32 36 36 37 34 33 34
42 41 41 44 46 43 42 39 37 35 32 32 30 24 26 33 45 42 30 28 26 26 30 32 32 32 32 33 31 31 30 30 32 32 33 38 41 42 44 44 41 41 39 34 34 31 24 34 46 40 35 39 41 37 32 31 35 41 37 29 32 35 28 19 22 25 15 11 16 15 16 27 36 41 44 40 40 38 29 29 31 31 32 32 32 32 30 26
41 42 42 45 47 45 44 40 37 36 34 35 32 31 37 45 45 37 29 25 21 21 24 26 29 32 33 34 34 34 32 32 35 34 36 39 43 45 46 45 44 42 41 38 36 31 25 34 46 42 38 40 38 35 34 30 31 33 29 29 35 39 36 28 24 30 19 9 20 24 24 38 44 47 50 40 38 38 29 29 29 27 29 30 29 28 23 19
42 42 43 46 46 44 43 41 40 38 36 39 39 40 45 52 50 43 35 27 22 20 18 22 26 27 27 27 29 30 29 31 36 37 38 39 42 46 47 46 46 45 44 43 42 39 34 37 46 46 41 39 35 31 32 35 37 32 28 31 33 29 31 27 9 9 9 7 19 29 30 34 32 33 33 20 19 26 26 28 28 26 26 23 22 21 18 19
43 43 46 47 46 45 44 41 42 40 38 42 46 47 51 53 52 50 47 42 37 31 28 30 31 28 28 29 30 29 26 29 34 37 39 38 39 44 43 41 44 45 44 42 42 45 41 35 39 47 47 40 35 31 31 35 37 36 37 38 31 19 19 22 11 4 8 5 10 24 31 36 40 44 41 31 26 26 24 26 26 22 20 17 19 21 21 25
44 45 48 47 46 46 45 42 42 40 40 45 48 49 51 52 51 50 48 47 46 41 36 35 34 32 31 32 32 28 25 27 30 30 34 35 35 40 38 35 37 37 37 38 38 41 41 32 27 38 45 38 35 36 36 37 35 36 40 40 38 29 17 17 18 13 11 6 8 16 19 33 51 48 40 36 29 25 23 22 20 17 16 19 27 33 35 34
43 44 48 48 47 47 46 44 43 41 42 48 50 50 49 50 50 48 46 46 45 43 39 36 35 34 34 35 34 32 30 31 29 28 31 32 33 36 34 30 32 33 32 32 33 35 38 35 29 33 39 38 40 44 43 42 40 39 42 41 42 38 27 19 19 24 21 8 7 7 8 37 56 36 23 27 22 21 20 15 15 17 16 24 36 42 41 40
42 42 46 47 47 47 44 42 43 43 45 48 50 51 50 49 50 48 48 48 45 43 43 42 39 37 37 36 35 35 34 33 32 30 31 34 35 33 30 28 28 28 27 29 32 33 34 37 35 35 39 43 49 52 49 48 45 41 42 43 44 44 36 21 13 28 35 19 13 10 8 39 58 33 24 33 26 23 24 21 22 22 21 28 35 39 42 46
43 44 47 46 46 46 43 41 42 44 47 51 52 52 50 48 48 47 48 50 48 46 46 47 46 46 45 42 41 40 37 35 35 34 34 36 35 31 28 27 25 21 21 27 31 33 35 36 35 37 42 44 47 47 47 48 46 43 42 43 46 46 45 32 16 23 31 22 25 23 13 39 66 50 39 46 40 29 24 26 30 29 31 39 42 43 46 49
44 45 47 47 47 47 45 44 44 45 48 51 52 52 50 48 49 48 47 49 50 49 48 47 48 48 47 46 44 42 40 40 40 41 41 40 40 37 34 33 32 27 22 23 26 28 29 28 29 35 39 40 43 45 48 50 44 38 38 42 45 45 46 43 34 34 32 22 25 20 11 36 66 60 50 53 50 39 33 38 42 41 45 49 47 47 48 50
45 45 46 47 47 48 48 49 49 50 50 49 48 49 48 48 48 47 47 46 47 48 49 48 47 46 45 43 42 42 41 37 37 40 41 41 44 45 42 41 41 39 33 29 25 22 21 18 17 19 19 21 27 30 38 46 41 35 36 39 43 46 45 44 43 40 33 29 32 23 13 34 58 57 50 49 48 47 48 50 49 47 50 50 49 51 53 54
46 46 46 46 47 49 52 53 52 53 52 51 52 53 50 50 50 48 47 47 46 46 48 49 47 45 44 44 45 47 47 42 40 41 42 43 46 47 46 45 45 47 46 42 35 29 27 26 23 17 10 9 13 18 28 34 28 25 29 31 35 39 39 41 42 34 23 29 41 34 25 42 59 58 56 56 56 57 58 57 54 53 55 55 55 56 56 57
46 45 44 45 45 47 51 53 53 53 53 52 54 56 55 57 60 60 58 56 55 53 51 50 48 47 48 48 49 50 52 50 48 48 50 51 51 50 48 46 46 47 48 46 43 40 39 39 39 36 31 29 32 38 43 41 33 31 34 36 38 37 36 39 40 35 30 33 41 44 44 51 57 58 64 69 68 66 66 65 63 61 59 59 58 57 58 59
44 44 43 42 40 40 44 48 50 52 52 52 54 56 58 61 63 63 62 62 62 59 54 51 51 51 52 52 51 51 52 53 52 53 54 54 55 54 50 48 48 47 46 46 46 45 44 41 43 46 47 46 48 49 49 49 50 51 50 51 51 47 42 40 38 39 39 34 34 43 50 50 51 56 65 70 71 71 70 68 67 64 61 60 58 57 57 57
44 45 43 41 40 39 41 44 46 47 47 48 50 52 53 56 57 59 61 61 61 57 52 51 52 53 54 52 51 51 50 49 50 52 53 54 55 54 52 51 50 47 46 47 47 48 46 45 46 49 49 48 49 49 50 52 55 56 55 56 57 55 50 46 43 45 46 41 42 48 51 54 57 59 62 68 73 73 70 70 70 68 66 63 60 59 60 59
43 43 42 42 42 42 43 45 45 45 45 46 50 50 50 53 54 56 57 56 55 52 49 51 52 52 54 54 54 55 52 47 49 51 53 56 54 52 52 53 51 50 49 48 47 46 46 47 48 49 50 50 49 50 53 56 58 59 60 59 58 59 60 59 59 60 59 57 58 58 57 62 66 66 68 72 72 69 70 70 69 68 68 65 63 64 64 63
42 41 40 42 44 44 45 46 45 44 43 44 48 50 49 51 53 53 53 53 53 51 49 53 56 55 55 55 54 57 55 51 54 55 54 55 53 51 52 52 51 50 50 48 46 44 45 47 45 45 47 47 48 51 53 55 58 60 62 61 60 60 63 65 67 67 66 65 66 63 58 62 68 70 71 71 68 68 69 66 62 62 60 54 55 61 63 60
41 41 39 41 46 47 48 49 48 47 46 45 48 49 48 49 50 50 51 53 54 53 52 53 55 54 53 54 54 56 56 55 58 58 56 55 54 52 53 55 54 52 52 51 48 45 44 43 42 40 40 42 46 49 51 55 59 60 61 60 61 64 67 68 67 67 67 68 67 61 57 62 69 69 68 67 66 65 60 54 51 50 47 45 50 58 59 56
37 40 38 38 42 45 47 49 48 48 50 51 52 51 48 48 48 47 49 51 51 51 52 52 52 51 51 53 54 55 54 53 55 56 55 55 55 55 56 59 58 56 55 55 52 50 47 45 44 39 35 39 44 47 51 50 41 41 51 58 61 66 69 68 67 67 66 65 62 59 60 62 62 60 62 62 58 53 48 44 44 45 45 46 51 54 54 54
Wind_Direction
289 290 292 294 296 298 299 300 300 301 301 302 302 303 305 307 311 311 312 312 310 309 307 305 302 299 298 295 296 293 294 300 299 307 312 305 308 319 328 334 340 343 349 353 353 357 357 357 359 353 353 352 346 343 332 328 307 288 287 278 284 297 286 278 272 268 279 287 286 292 301 301 298 303 304 297 297 294 295 300 296 292 286 283 284 283 284 282
285 285 286 287 288 290 292 294 294 295 296 298 298 297 298 299 299 299 299 299 299 300 299 298 296 294 291 289 289 287 289 287 287 297 300 289 287 299 310 311 316 320 324 330 332 336 337 335 334 332 334 333 332 326 321 323 305 299 292 280 293 300 272 266 268 272 283 291 293 296 301 303 300 301 305 304 301 295 299 311 302 293 289 284 278 281 288 288
279 280 282 282 284 285 286 287 288 289 291 293 294 294 294 295 295 294 294 292 291 290 289 290 290 289 288 286 284 284 285 284 289 295 286 277 276 289 298 296 299 302 306 312 316 320 320 321 323 321 321 319 317 312 311 312 303 296 283 284 301 294 275 272 277 284 291 296 296 296 296 300 302 298 301 306 300 295 302 309 298 297 297 291 285 287 296 296
278 278 279 280 281 281 282 283 283 283 284 285 287 288 289 289 290 291 291 291 290 288 286 285 284 285 284 283 282 282 281 284 291 289 280 273 270 284 291 288 289 290 294 297 300 305 306 308 311 310 309 312 310 306 306 305 298 291 287 295 302 288 280 278 281 288 295 296 295 294 293 296 298 294 298 301 295 295 304 303 296 299 298 295 297 298 300 300
278 278 278 279 279 280 280 280 281 281 281 281 282 283 283 283 283 284 286 286 286 286 285 284 283 282 281 281 280 280 280 285 291 281 273 269 271 283 285 282 282 283 285 287 289 290 292 294 295 297 296 302 303 301 305 302 293 290 293 298 298 289 285 287 288 290 295 294 292 292 291 294 294 292 296 295 291 298 306 300 298 301 298 297 301 300 297 299
277 278 279 279 279 279 280 279 280 280 280 281 280 281 280 280 279 278 278 279 281 281 281 281 281 281 280 279 278 277 276 279 286 278 272 272 275 279 278 277 276 276 279 281 283 281 282 282 283 286 286 288 294 300 301 295 295 295 294 297 296 291 288 294 294 292 295 292 291 291 289 292 292 292 294 290 293 304 302 296 295 295 294 295 298 298 295 295
274 275 276 277 278 278 279 279 279 280 280 281 281 281 281 280 279 277 275 274 275 276 277 277 277 279 277 277 276 275 273 274 279 277 274 274 274 275 274 273 273 273 276 277 278 278 277 277 279 280 278 281 286 290 281 279 289 292 292 295 289 282 287 294 292 292 295 292 291 290 288 291 291 291 290 291 300 305 296 288 285 283 285 289 294 297 296 294
272 273 273 274 275 276 277 277 278 279 279 280 280 281 281 281 280 278 276 274 273 273 273 274 274 275 274 274 273 271 273 275 275 273 274 273 271 271 270 271 272 273 274 275 276 276 277 276 275 273 273 276 276 271 265 272 282 286 290 294 287 284 290 292 290 291 292 290 289 287 289 290 291 290 288 296 310 303 291 280 278 280 281 285 291 294 294 292
269 270 271 272 272 273 274 275 276 277 277 278 279 279 280 280 280 279 277 275 274 272 272 273 273 273 272 272 271 270 273 275 271 270 273 272 269 267 267 270 272 274 274 276 277 277 277 275 273 273 274 274 272 272 272 274 279 285 290 291 289 291 293 292 291 292 290 289 287 286 288 288 289 286 285 303 317 297 285 277 277 280 282 287 291 291 291 291
267 268 269 271 272 272 273 273 274 274 275 276 277 278 278 278 278 279 278 276 274 273 272 272 272 271 271 272 270 269 274 276 272 270 270 270 269 267 267 270 271 274 275 277 280 279 279 277 276 278 277 275 274 276 277 277 282 289 289 288 290 292 293 292 290 290 291 289 287 286 286 285 283 277 281 305 305 281 269 270 273 277 283 288 290 291 290 289
266 266 267 269 271 271 272 273 273 273 273 274 275 276 276 277 276 276 277 277 276 274 273 272 271 270 270 268 267 269 274 273 270 270 269 270 269 268 269 271 272 274 275 278 280 280 280 279 277 276 275 276 278 281 282 283 288 291 288 289 291 291 292 292 291 292 291 288 287 288 286 283 276 273 284 303 293 279 275 278 280 283 288 289 289 291 290 290
265 265 266 267 269 270 271 272 272 273 273 274 274 275 275 275 275 275 275 276 276 275 274 273 272 271 270 266 264 269 272 268 269 269 268 270 269 269 270 270 272 273 275 277 278 279 279 277 275 272 272 275 278 281 284 289 291 290 291 293 294 293 293 295 296 295 292 288 288 288 283 278 277 279 289 294 287 286 286 286 286 287 292 292 291 292 292 292
264 265 265 265 266 267 269 270 271 271 272 273 274 275 276 275 276 275 275 275 276 276 276 275 274 273 272 267 265 267 266 265 267 267 267 269 268 269 269 269 271 272 273 275 277 278 276 274 273 272 272 274 277 278 281 287 288 289 292 294 295 295 296 303 306 300 295 294 291 284 277 279 285 289 291 289 285 287 287 286 288 288 290 292 293 292 292 292
263 264 264 264 264 264 266 267 268 269 271 272 273 274 275 276 277 276 276 275 275 275 276 276 276 275 273 269 267 267 266 265 265 265 268 269 268 268 268 269 271 271 272 273 276 276 273 272 270 272 273 274 278 278 279 282 285 290 292 290 293 293 300 311 310 302 296 294 293 278 274 284 295 295 292 288 285 287 288 288 289 290 291 290 291 291 292 291
263 264 265 264 264 264 264 264 265 267 268 269 271 273 274 275 276 277 277 277 276 275 275 275 275 276 276 272 268 268 269 268 268 268 268 267 267 267 268 269 271 271 272 272 273 273 271 270 269 272 274 276 278 277 279 282 285 290 286 286 292 290 300 312 307 301 295 289 285 270 274 289 296 298 296 291 288 289 290 290 291 291 292 292 291 292 292 290
264 265 265 265 266 265 264 264 265 265 266 267 268 269 272 273 274 275 276 276 276 275 275 275 273 274 275 273 270 269 270 271 272 270 267 266 266 266 267 269 270 270 271 271 270 269 269 268 269 271 273 275 277 278 283 284 284 286 277 279 291 289 296 304 298 297 292 281 275 270 278 287 290 295 299 295 292 291 290 290 291 291 292 294 297 296 294 293
266 266 266 266 266 266 266 266 266 266 266 266 266 267 268 269 271 272 273 273 273 274 274 274 273 273 273 273 273 272 273 274 273 270 267 265 265 266 266 266 267 267 268 268 267 267 268 268 269 269 272 273 273 276 276 272 279 284 278 276 286 289 290 292 290 292 287 280 278 276 279 286 290 293 296 294 291 291 290 289 290 291 292 296 298 297 296 297
267 267 267 267 267 268 268 268 268 268 268 268 268 267 266 267 269 269 269 270 270 271 270 271 272 273 273 274 275 275 275 275 274 271 269 267 266 266 265 265 265 266 267 267 266 266 267 268 268 268 269 268 268 267 260 266 280 285 283 280 280 282 280 280 282 282 282 281 278 273 275 285 292 292 292 291 289 290 290 290 291 292 294 297 297 295 295 294
270 269 269 269 269 269 269 270 270 270 270 270 270 270 270 269 268 267 267 267 267 268 270 272 271 270 273 274 273 273 273 274 273 272 271 271 269 268 267 266 265 265 265 265 265 265 267 268 266 265 264 263 266 270 271 280 288 286 284 281 277 277 277 280 283 281 283 280 275 275 276 284 291 292 291 291 289 288 288 290 293 295 298 299 298 295 291 289
272 272 271 271 270 270 270 271 271 271 271 271 272 273 273 273 272 270 268 266 265 265 267 269 270 269 271 272 271 270 272 271 270 270 269 268 268 269 268 266 266 263 261 264 269 270 270 268 265 262 262 266 271 277 281 286 289 286 283 277 275 276 278 285 288 287 287 280 277 282 282 284 290 291 292 292 289 286 285 288 291 295 298 298 298 295 291 292
273 273 274 273 273 272 272 272 272 272 273 272 273 273 273 274 274 274 273 270 266 265 264 264 267 268 267 269 270 270 271 270 268 266 264 265 267 268 267 266 266 264 263 267 273 274 269 265 264 264 268 274 278 279 278 278 278 278 276 273 273 275 279 286 289 289 290 281 280 285 282 282 288 290 291 290 287 286 286 289 291 293 294 295 297 297 297 296
273 274 275 275 276 275 275 275 275 274 275 275 274 275 275 275 275 276 276 275 270 267 267 265 265 265 266 267 268 269 269 268 266 264 263 265 266 266 267 267 266 267 269 268 270 269 264 262 265 269 275 279 279 278 274 271 269 267 266 267 270 276 282 286 288 289 289 283 283 287 281 280 286 288 288 287 286 287 289 289 290 291 292 295 301 303 300 293
273 274 274 276 276 276 277 278 278 278 278 278 278 278 278 277 277 277 277 278 274 269 268 268 266 266 265 265 266 267 268 267 267 266 264 263 263 263 264 266 266 268 269 268 267 265 261 264 272 276 277 278 278 277 275 275 274 269 267 267 270 278 281 283 287 289 287 284 283 286 283 281 285 286 284 285 286 287 287 286 286 289 295 300 304 304 297 289
273 274 275 276 277 277 278 278 280 280 279 280 281 280 280 280 281 281 281 281 279 273 268 268 269 268 267 266 266 265 264 265 265 265 264 260 261 262 262 265 267 267 267 267 268 266 265 269 275 277 276 276 276 275 272 274 277 275 272 270 274 280 280 279 284 285 282 281 281 285 287 283 284 286 285 287 289 288 286 286 289 295 300 304 305 300 293 290
274 275 275 277 278 278 278 279 281 282 282 282 282 282 283 283 284 285 285 286 284 280 275 272 271 271 270 268 266 263 263 263 261 263 263 260 261 262 263 263 263 265 266 266 266 266 268 272 274 274 274 274 274 273 271 272 276 276 273 274 279 282 281 281 283 279 275 278 281 287 290 286 284 284 286 288 288 287 288 289 294 301 303 305 304 294 290 294
275 275 276 276 277 278 279 280 281 282 283 284 284 284 285 285 287 288 289 289 286 284 284 279 274 272 270 266 265 262 259 261 261 260 260 259 259 261 262 262 261 264 265 266 266 264 265 269 270 271 273 273 271 271 273 274 274 273 274 278 281 282 281 280 280 275 269 274 280 275 275 289 286 278 278 283 283 283 285 289 295 299 303 305 299 290 295 297
276 277 276 276 277 278 278 279 281 281 283 285 284 285 286 287 289 291 293 292 285 284 289 281 269 269 268 266 264 254 250 258 262 259 260 261 260 259 259 260 261 263 264 261 259 261 264 265 266 270 272 272 270 272 277 277 271 271 276 279 278 279 279 277 276 271 269 275 275 265 267 283 282 278 277 276 275 278 282 287 293 297 301 302 298 295 296 290
276 278 278 279 279 278 278 279 279 279 281 282 282 284 285 285 288 290 292 288 277 284 291 275 256 260 261 259 255 247 250 261 263 260 262 261 259 258 257 258 259 261 263 258 255 261 264 264 266 269 269 269 271 276 279 276 271 272 277 277 275 276 275 274 273 271 276 281 273 263 263 267 277 281 284 278 268 271 279 285 290 295 299 298 299 300 292 273
274 276 278 279 280 280 280 279 279 279 279 279 280 281 280 283 286 284 275 259 262 276 275 262 251 246 247 250 249 251 259 265 263 261 262 258 257 258 257 257 257 256 256 254 258 263 265 265 266 265 265 270 275 278 277 273 270 272 274 273 272 273 273 273 275 276 281 278 259 250 245 238 275 279 273 255 253 265 279 283 286 294 298 297 298 301 296 287
276 276 276 276 278 279 279 280 281 280 279 279 280 278 278 279 276 270 254 251 259 270 270 262 255 249 245 248 251 254 259 261 263 263 261 257 256 256 255 255 253 253 253 250 255 264 266 265 263 262 267 272 274 273 272 271 268 269 271 270 270 274 275 274 274 277 283 271 261 256 249 236 268 282 265 242 254 269 278 273 278 295 298 295 298 301 301 301
278 278 277 276 277 279 278 279 280 279 280 279 278 277 276 273 264 246 240 256 262 267 266 264 262 259 255 254 256 255 253 253 256 258 260 258 256 255 253 252 249 252 256 254 257 264 265 263 264 268 271 271 271 270 269 267 266 267 268 267 271 277 277 276 270 263 246 267 269 269 258 234 235 267 272 265 273 271 271 254 255 291 300 296 300 301 301 303
279 279 279 278 278 278 278 279 278 277 277 274 273 272 267 262 249 238 243 258 269 270 264 262 261 261 262 256 250 247 245 248 250 252 257 257 257 257 255 255 254 251 256 261 265 267 264 266 271 273 272 271 269 266 264 264 264 264 261 258 261 275 277 263 226 213 224 257 270 277 263 232 240 256 260 264 267 259 270 255 225 277 301 296 299 301 298 299
278 279 280 279 279 278 277 278 275 272 271 269 270 263 248 233 246 247 247 250 251 258 264 265 262 264 265 254 246 244 243 249 251 250 253 254 254 256 255 256 256 252 256 263 269 271 269 272 272 268 269 270 265 259 259 264 266 263 259 251 236 216 263 252 231 244 244 259 273 270 252 238 252 263 262 261 265 268 275 258 228 271 296 292 295 297 294 296
274 276 278 279 278 277 276 277 276 276 274 270 269 254 223 222 250 254 252 251 253 259 264 266 268 268 265 259 255 253 250 253 255 251 250 251 251 252 253 254 255 255 257 257 259 262 266 273 272 266 268 272 268 264 266 269 268 266 265 257 242 232 232 247 244 247 258 277 281 252 219 237 260 270 272 271 274 275 275 262 253 275 289 288 289 291 293 294
271 271 272 274 274 276 277 277 278 279 275 270 264 240 218 235 251 257 258 259 260 263 263 264 267 267 266 264 261 259 257 256 258 254 250 250 252 255 256 256 257 258 254 249 254 258 255 266 274 274 271 273 273 272 270 265 261 264 261 247 243 246 245 246 250 256 274 308 280 242 232 260 268 273 276 277 278 275 266 260 264 276 286 286 285 289 292 286
267 265 266 268 270 275 277 277 278 275 271 270 255 231 234 249 255 257 259 262 259 257 261 262 262 262 262 263 261 259 257 254 256 254 251 252 254 256 258 259 260 259 254 252 255 258 253 264 276 279 274 273 273 271 268 259 255 259 250 239 251 259 250 243 251 262 271 292 273 264 262 271 278 282 280 274 273 271 255 246 259 277 284 283 283 287 283 267
265 264 263 265 267 271 273 275 275 271 270 266 250 242 256 262 259 257 257 259 254 251 262 266 262 260 259 262 263 264 261 254 253 252 250 252 254 256 256 257 260 260 260 260 258 259 260 264 272 275 273 271 268 267 266 258 249 245 246 254 262 258 244 238 247 280 264 258 271 271 273 279 282 281 282 281 271 268 254 247 262 275 274 272 279 282 271 263
265 265 263 263 265 267 269 272 272 268 265 259 249 251 261 263 263 263 260 259 258 257 262 264 263 261 261 265 269 271 267 255 250 249 250 253 257 261 260 258 261 262 263 263 258 258 260 260 265 267 269 270 268 264 257 250 244 242 251 259 255 243 233 227 214 237 249 236 271 274 278 280 270 266 276 284 277 273 267 262 265 262 255 263 277 280 278 277
266 266 264 263 264 265 266 268 270 267 260 253 249 252 257 260 264 266 263 264 264 263 260 258 259 259 259 263 266 268 268 260 255 252 253 255 259 266 268 265 265 265 264 262 257 259 260 256 257 261 263 268 267 260 252 249 249 247 248 250 246 245 238 219 210 216 236 236 259 274 283 276 270 271 278 283 281 281 278 266 250 231 237 268 284 287 289 286
269 268 265 263 263 264 264 266 267 264 258 254 253 256 259 262 265 267 268 267 263 261 259 256 255 255 257 261 262 263 266 268 266 260 255 256 260 267 272 271 270 269 266 261 258 261 258 251 250 254 257 262 262 260 261 263 261 252 244 244 246 246 241 239 234 227 231 234 246 259 270 268 272 279 283 282 287 285 277 257 234 228 242 272 286 291 291 290
270 268 265 263 263 263 266 267 265 264 262 260 260 261 262 263 265 267 270 268 263 259 258 256 255 254 256 260 259 260 263 265 266 262 256 256 259 265 268 270 273 274 267 258 254 255 252 247 248 249 249 254 259 264 270 272 270 264 256 253 258 255 246 245 246 235 236 236 238 242 249 264 268 273 278 282 287 284 276 267 261 260 261 273 284 287 288 290
268 267 265 265 264 264 265 268 268 267 265 263 264 266 266 266 267 268 269 269 267 263 260 259 260 259 258 259 259 259 260 261 261 259 256 257 258 259 261 265 269 267 260 256 256 258 256 249 246 247 250 254 260 266 270 272 272 268 261 259 263 259 245 236 237 247 246 241 244 249 249 260 263 266 271 276 280 280 279 275 274 274 275 280 284 284 285 288
265 266 266 265 264 264 264 265 267 266 265 265 268 269 268 267 267 267 267 267 266 265 263 263 264 265 264 265 266 264 263 264 263 260 257 256 254 251 251 256 261 262 258 256 257 259 257 250 243 248 256 259 261 262 263 266 269 264 258 258 257 251 244 242 248 258 259 251 247 248 244 258 264 268 270 273 276 275 274 276 278 279 280 283 284 283 286 288
265 265 265 264 263 262 261 260 261 263 265 267 269 270 269 267 266 267 267 266 265 266 266 266 267 267 268 271 271 269 268 267 266 265 262 259 260 259 256 254 256 258 259 262 262 257 251 248 247 253 261 264 263 261 259 260 265 265 263 261 256 251 251 252 255 258 258 253 250 250 254 259 264 269 272 273 276 276 275 277 277 278 279 281 283 284 286 287
265 264 264 264 263 262 260 259 260 262 265 266 267 268 268 267 267 268 269 268 268 268 267 267 267 267 269 272 272 271 270 266 264 267 267 266 269 273 271 267 263 260 260 261 259 258 256 253 253 251 246 252 254 255 260 262 266 269 265 263 263 260 257 256 256 254 254 252 249 249 257 262 263 267 269 270 272 273 275 276 276 277 279 281 282 284 286 287
262 261 262 263 263 262 263 263 262 262 262 263 265 266 266 267 268 270 271 270 270 270 266 264 265 268 271 271 268 268 269 270 268 267 269 273 276 278 277 275 273 269 267 263 261 266 266 259 257 253 245 244 247 253 264 268 265 265 265 264 267 269 269 264 257 252 256 260 254 252 258 262 263 265 268 270 271 272 274 275 276 277 279 281 282 284 286 287
260 258 258 260 259 258 261 264 264 263 262 261 260 261 264 267 269 270 269 269 270 270 266 262 262 264 266 266 265 265 268 271 270 267 268 273 277 278 277 274 273 271 270 269 272 274 266 258 261 259 252 251 252 255 264 265 260 260 262 262 263 266 268 266 259 257 260 262 259 258 261 264 265 265 268 271 273 275 276 278 280 280 281 282 283 284 285 286
261 259 258 257 256 255 256 260 264 266 266 262 259 260 262 263 264 265 267 268 269 268 264 261 260 261 263 265 264 263 265 266 266 266 267 271 273 275 275 273 272 272 271 272 275 274 263 257 262 262 258 258 258 257 259 258 257 258 257 257 260 260 259 257 256 258 257 255 259 263 265 267 268 267 268 271 273 276 278 279 280 281 282 282 283 283 283 284
262 261 258 254 253 253 253 256 260 263 263 259 256 257 259 260 261 263 265 266 265 264 261 260 261 263 265 267 264 261 260 261 264 267 270 272 273 273 272 273 273 274 274 273 273 272 262 257 261 262 258 258 260 260 258 254 253 254 254 255 256 257 257 256 254 255 256 256 259 262 263 264 266 267 268 269 271 274 277 279 280 282 284 284 284 284 284 285
263 260 257 254 251 249 250 252 252 254 256 253 251 252 253 256 258 260 263 262 262 263 261 261 264 266 267 268 265 261 261 264 265 268 271 272 271 270 270 272 273 274 274 272 271 269 261 257 262 264 258 256 260 262 260 254 251 252 254 256 257 256 257 255 254 255 255 255 257 257 257 260 264 267 266 267 270 272 275 280 282 283 285 285 285 284 284 287
263 260 257 255 255 254 253 252 251 251 253 252 251 253 254 254 255 258 261 261 260 262 262 263 267 269 268 266 265 265 269 270 269 271 273 270 267 268 269 269 270 270 270 270 270 266 259 256 258 257 254 254 260 264 263 259 254 250 249 254 255 254 253 253 255 257 255 254 255 253 252 258 266 270 269 270 272 274 278 283 284 285 287 287 285 286 287 289
262 261 257 253 254 257 257 256 252 251 252 253 254 257 259 259 258 260 263 263 261 261 262 263 265 267 267 266 267 268 270 270 269 271 271 269 267 268 268 267 266 265 265 267 267 263 260 257 255 251 250 253 259 264 263 260 254 242 243 252 257 256 255 254 255 258 257 254 252 251 254 263 271 272 270 271 275 278 280 281 284 290 292 287 285 287 289 290
Height
3186 3186 3186 3186 3186 3186 3186 3186 3185 3185 3185 3185 3185 3185 3185 3184 3184 3184 3184 3184 3184 3184 3183 3183 3183 3183 3182 3182 3181 3181 3181 3181 3181 3181 3180 3180 3180 3180 3179 3179 3179 3178 3178 3177 3177 3176 3176 3175 3175 3174 3174 3174 3173 3173 3173 3172 3172 3171 3171 3170 3169 3169 3169 3169 3169 3167 3166 3165 3164 3162 3162 3162 3160 3159 3160 3159 3158 3158 3157 3156 3156 3155 3154 3154 3153 3152 3151 3152
3185 3185 3185 3185 3185 3185 3185 3185 3185 3185 3184 3184 3184 3184 3184 3184 3184 3183 3183 3183 3183 3183 3182 3182 3182 3182 3181 3181 3181 3180 3180 3180 3180 3180 3180 3180 3179 3179 3179 3178 3178 3178 3177 3177 3176 3176 3175 3174 3174 3174 3173 3173 3173 3172 3172 3172 3171 3170 3170 3168 3168 3168 3168 3168 3167 3166 3165 3164 3163 3161 3159 3160 3159 3157 3158 3158 3157 3156 3155 3155 3154 3153 3152 3152 3152 3150 3149 3150
3184 3184 3184 3184 3184 3184 3184 3184 3184 3184 3184 3183 3183 3183 3183 3183 3183 3183 3182 3182 3182 3182 3181 3181 3181 3180 3180 3180 3179 3179 3179 3178 3178 3179 3179 3178 3178 3178 3178 3177 3177 3177 3176 3176 3175 3175 3174 3174 3173 3172 3172 3172 3171 3171 3171 3171 3170 3169 3168 3167 3167 3166 3166 3166 3165 3164 3163 3162 3162 3160 3158 3157 3158 3156 3155 3156 3155 3153 3153 3153 3152 3151 3151 3150 3149 3148 3148 3148
3183 3183 3183 3183 3183 3183 3183 3183 3183 3183 3183 3183 3182 3182 3182 3182 3182 3181 3181 3181 3181 3180 3180 3180 3179 3179 3179 3178 3178 3178 3177 3177 3177 3177 3177 3177 3177 3177 3176 3176 3176 3175 3175 3175 3174 3174 3173 3173 3172 3172 3171 3170 3170 3169 3169 3169 3169 3168 3167 3166 3166 3165 3164 3164 3163 3162 3161 3160 3159 3159 3157 3156 3156 3154 3153 3154 3152 3151 3151 3151 3150 3150 3149 3147 3147 3147 3146 3146
3181 3181 3182 3182 3182 3182 3182 3182 3182 3182 3182 3182 3181 3181 3181 3181 3181 3180 3180 3180 3180 3179 3179 3179 3178 3178 3177 3177 3177 3176 3176 3176 3176 3176 3176 3176 3175 3175 3175 3175 3174 3174 3174 3173 3173 3173 3172 3172 3171 3171 3170 3170 3169 3168 3167 3167 3167 3166 3165 3164 3164 3163 3162 3161 3161 3160 3160 3158 3157 3157 3155 3154 3153 3152 3152 3151 3149 3149 3150 3148 3147 3146 3146 3145 3145 3145 3145 3144
3180 3180 3180 3180 3180 3180 3180 3181 3181 3180 3180 3180 3180 3180 3180 3180 3179 3179 3179 3179 3178 3178 3178 3177 3177 3177 3176 3176 3175 3175 3175 3174 3174 3174 3174 3174 3174 3174 3173 3173 3173 3172 3172 3172 3172 3171 3171 3170 3170 3170 3169 3168 3168 3167 3166 3165 3165 3164 3163 3163 3162 3161 3160 3159 3158 3157 3158 3156 3155 3154 3153 3152 3151 3150 3150 3148 3147 3148 3148 3146 3145 3144 3143 3142 3142 3143 3143 3142
3178 3178 3178 3178 3178 3178 3179 3179 3179 3179 3179 3179 3179 3179 3179 3178 3178 3178 3178 3177 3177 3177 3176 3176 3176 3175 3175 3174 3174 3173 3173 3173 3174 3173 3173 3173 3172 3172 3172 3171 3171 3171 3171 3170 3170 3169 3169 3169 3168 3168 3167 3167 3167 3166 3166 3164 3163 3162 3161 3161 3161 3159 3158 3158 3156 3155 3155 3154 3153 3152 3150 3151 3149 3147 3147 3146 3145 3146 3146 3144 3144 3143 3142 3141 3140 3140 3140 3140
3176 3176 3176 3176 3176 3176 3177 3177 3177 3177 3177 3177 3177 3177 3177 3177 3177 3176 3176 3176 3175 3175 3175 3174 3174 3174 3173 3172 3172 3172 3172 3173 3172 3171 3171 3171 3171 3171 3170 3170 3170 3169 3169 3169 3168 3168 3167 3167 3167 3166 3165 3165 3165 3165 3165 3163 3161 3160 3159 3159 3158 3157 3157 3156 3154 3153 3153 3151 3150 3149 3148 3148 3147 3145 3143 3143 3144 3144 3143 3142 3141 3141 3140 3139 3138 3138 3138 3137
3174 3174 3174 3174 3174 3175 3175 3175 3175 3175 3175 3175 3175 3175 3175 3175 3175 3174 3174 3174 3174 3173 3173 3173 3172 3172 3171 3171 3170 3170 3170 3171 3171 3170 3170 3170 3169 3169 3169 3169 3168 3168 3168 3167 3167 3166 3166 3166 3165 3164 3164 3163 3163 3163 3163 3161 3159 3158 3157 3157 3155 3154 3154 3153 3152 3151 3150 3149 3147 3146 3145 3146 3146 3142 3139 3141 3143 3141 3141 3139 3139 3139 3138 3137 3136 3136 3135 3135
3172 3173 3173 3172 3172 3173 3173 3173 3173 3173 3173 3173 3173 3173 3172 3172 3172 3172 3172 3172 3172 3171 3171 3171 3170 3170 3170 3169 3168 3168 3169 3169 3169 3168 3168 3168 3168 3167 3167 3167 3167 3166 3166 3165 3165 3165 3164 3164 3163 3163 3162 3161 3161 3160 3160 3158 3157 3156 3155 3153 3152 3151 3151 3151 3149 3148 3147 3145 3144 3143 3142 3143 3143 3139 3136 3139 3141 3139 3139 3137 3136 3136 3136 3135 3133 3133 3133 3132
3170 3171 3171 3171 3171 3170 3171 3171 3170 3171 3171 3171 3171 3170 3170 3170 3170 3170 3170 3169 3169 3169 3169 3168 3168 3167 3167 3167 3166 3166 3167 3167 3167 3167 3166 3166 3166 3166 3165 3165 3165 3165 3164 3164 3164 3163 3163 3162 3162 3161 3160 3159 3158 3158 3157 3156 3155 3154 3152 3150 3149 3149 3148 3147 3146 3145 3145 3142 3141 3140 3139 3138 3138 3134 3134 3137 3137 3136 3136 3135 3134 3133 3133 3133 3131 3130 3129 3129
3168 3168 3168 3169 3169 3169 3169 3168 3168 3168 3168 3169 3168 3168 3168 3167 3167 3167 3167 3167 3167 3167 3166 3166 3165 3165 3164 3163 3163 3164 3165 3165 3164 3165 3164 3164 3164 3164 3164 3163 3163 3162 3162 3162 3161 3162 3161 3160 3159 3159 3158 3157 3156 3155 3153 3153 3152 3151 3149 3147 3145 3145 3143 3143 3143 3142 3141 3140 3139 3138 3134 3133 3133 3130 3133 3135 3133 3133 3133 3132 3132 3131 3130 3130 3129 3128 3126 3125
3166 3166 3166 3166 3166 3166 3166 3166 3166 3166 3166 3166 3166 3166 3165 3165 3165 3165 3165 3165 3164 3164 3164 3163 3162 3162 3161 3160 3161 3162 3162 3162 3162 3162 3162 3162 3162 3161 3161 3161 3160 3160 3160 3160 3159 3159 3159 3157 3157 3156 3155 3154 3154 3153 3151 3150 3149 3147 3147 3145 3141 3140 3138 3139 3139 3137 3137 3136 3136 3136 3130 3127 3130 3128 3130 3132 3130 3130 3130 3129 3129 3128 3128 3127 3126 3125 3123 3122
3163 3163 3163 3163 3163 3164 3163 3163 3163 3163 3164 3164 3164 3163 3162 3162 3162 3162 3162 3162 3162 3161 3161 3160 3159 3158 3157 3157 3159 3159 3159 3160 3159 3160 3160 3160 3159 3159 3159 3158 3158 3158 3157 3157 3157 3156 3156 3155 3154 3153 3153 3152 3151 3150 3148 3148 3147 3145 3144 3142 3139 3136 3133 3135 3135 3133 3134 3133 3133 3133 3126 3122 3127 3128 3126 3127 3127 3126 3126 3126 3126 3124 3124 3124 3123 3122 3120 3119
3160 3160 3160 3160 3160 3161 3160 3160 3160 3161 3161 3161 3161 3161 3160 3159 3159 3159 3159 3158 3159 3158 3158 3157 3156 3155 3153 3153 3156 3156 3156 3157 3156 3157 3158 3157 3156 3156 3155 3155 3155 3155 3155 3154 3154 3154 3153 3152 3151 3150 3150 3150 3149 3146 3145 3145 3144 3143 3140 3138 3137 3134 3130 3131 3132 3131 3131 3129 3129 3130 3123 3118 3122 3125 3124 3123 3122 3122 3122 3121 3122 3121 3120 3120 3120 3119 3117 3116
3157 3157 3157 3157 3158 3157 3157 3157 3157 3158 3158 3158 3158 3157 3157 3157 3156 3156 3155 3155 3155 3154 3155 3153 3153 3152 3149 3150 3153 3153 3153 3154 3154 3155 3154 3154 3153 3153 3153 3152 3152 3152 3152 3151 3151 3150 3149 3148 3148 3147 3147 3147 3145 3143 3142 3141 3140 3139 3137 3134 3135 3132 3130 3129 3129 3128 3128 3126 3125 3125 3121 3117 3117 3121 3122 3120 3118 3118 3117 3116 3118 3117 3116 3116 3115 3114 3113 3112
3154 3154 3154 3154 3154 3154 3154 3154 3155 3155 3155 3155 3155 3154 3154 3153 3153 3153 3152 3152 3151 3151 3151 3149 3149 3148 3146 3147 3149 3149 3151 3151 3151 3151 3151 3151 3150 3150 3150 3149 3149 3149 3148 3148 3148 3147 3146 3145 3144 3144 3144 3143 3142 3141 3140 3138 3135 3135 3135 3133 3132 3131 3129 3128 3126 3126 3126 3123 3121 3121 3117 3114 3114 3117 3120 3119 3116 3113 3111 3111 3113 3114 3113 3112 3112 3109 3107 3106
3150 3151 3151 3151 3151 3151 3151 3151 3152 3152 3152 3152 3151 3151 3151 3150 3150 3149 3148 3148 3147 3147 3147 3145 3146 3144 3142 3145 3146 3146 3147 3148 3148 3148 3148 3148 3147 3147 3146 3146 3146 3145 3144 3144 3143 3143 3143 3142 3140 3140 3140 3139 3138 3137 3135 3132 3132 3133 3133 3131 3130 3129 3128 3126 3124 3123 3124 3120 3118 3117 3113 3110 3111 3113 3115 3116 3115 3110 3106 3106 3107 3109 3109 3109 3108 3106 3103 3101
3147 3147 3147 3147 3147 3147 3147 3148 3148 3148 3148 3149 3148 3148 3147 3147 3146 3145 3145 3144 3143 3143 3143 3142 3142 3141 3139 3141 3143 3143 3144 3145 3145 3145 3146 3145 3145 3144 3143 3142 3142 3141 3140 3139 3139 3139 3140 3137 3136 3136 3135 3134 3134 3134 3131 3129 3131 3131 3130 3129 3126 3126 3124 3122 3121 3120 3121 3117 3114 3113 3108 3106 3107 3107 3109 3111 3112 3108 3103 3102 3102 3102 3103 3104 3103 3101 3100 3098
3144 3144 3144 3144 3144 3144 3143 3144 3145 3145 3145 3145 3145 3144 3144 3144 3142 3141 3140 3139 3139 3139 3140 3139 3137 3137 3137 3137 3139 3140 3141 3141 3141 3142 3143 3142 3141 3140 3140 3139 3138 3136 3136 3136 3135 3136 3136 3131 3129 3130 3130 3131 3132 3132 3129 3129 3129 3127 3126 3125 3123 3122 3118 3116 3117 3116 3117 3112 3108 3108 3105 3102 3102 3102 3103 3105 3105 3104 3101 3100 3099 3098 3098 3097 3097 3096 3096 3095
3141 3141 3141 3141 3141 3140 3140 3141 3141 3141 3141 3141 3142 3141 3140 3140 3138 3136 3134 3132 3134 3135 3135 3135 3133 3132 3134 3134 3135 3137 3137 3137 3137 3138 3138 3138 3138 3137 3136 3135 3133 3131 3132 3134 3133 3131 3129 3123 3122 3126 3128 3130 3131 3130 3129 3128 3126 3125 3123 3121 3119 3118 3112 3112 3114 3113 3112 3107 3102 3104 3101 3097 3098 3097 3098 3099 3097 3096 3097 3098 3096 3095 3094 3093 3093 3092 3091 3091
3139 3138 3138 3138 3138 3137 3137 3138 3137 3138 3138 3138 3138 3137 3137 3137 3135 3133 3130 3125 3126 3130 3129 3130 3130 3128 3130 3131 3131 3134 3133 3132 3132 3132 3135 3136 3133 3132 3131 3129 3128 3127 3128 3130 3130 3126 3120 3115 3118 3125 3127 3128 3127 3126 3126 3125 3124 3122 3121 3119 3115 3113 3109 3108 3110 3110 3108 3103 3098 3099 3095 3091 3093 3092 3092 3092 3091 3090 3092 3093 3093 3091 3091 3090 3089 3088 3087 3085
3136 3136 3136 3135 3135 3134 3134 3135 3135 3135 3135 3135 3135 3135 3134 3133 3132 3130 3127 3119 3117 3123 3124 3123 3124 3123 3126 3127 3127 3130 3128 3126 3127 3127 3131 3132 3127 3128 3127 3123 3123 3124 3124 3124 3124 3121 3112 3110 3117 3124 3125 3123 3121 3122 3122 3121 3119 3117 3117 3116 3111 3110 3109 3105 3105 3106 3104 3100 3096 3094 3088 3084 3087 3086 3085 3087 3086 3086 3087 3087 3088 3088 3087 3087 3086 3085 3083 3081
3133 3133 3133 3133 3133 3131 3132 3132 3132 3132 3132 3132 3132 3131 3131 3130 3129 3127 3123 3115 3108 3113 3119 3119 3118 3118 3121 3123 3124 3126 3123 3121 3122 3121 3126 3126 3123 3124 3122 3120 3119 3119 3119 3119 3118 3114 3107 3110 3117 3119 3120 3119 3117 3117 3119 3118 3114 3110 3112 3112 3107 3106 3107 3103 3103 3103 3100 3096 3094 3092 3082 3074 3079 3079 3076 3081 3081 3080 3082 3082 3082 3083 3083 3083 3082 3081 3080 3077
3130 3130 3130 3130 3130 3129 3129 3129 3129 3129 3129 3130 3129 3129 3128 3127 3127 3124 3120 3112 3100 3100 3110 3114 3112 3112 3116 3118 3119 3120 3117 3115 3116 3117 3119 3120 3120 3118 3117 3117 3115 3112 3114 3116 3114 3107 3103 3110 3115 3114 3114 3115 3113 3112 3115 3115 3109 3105 3106 3107 3104 3103 3103 3101 3101 3100 3096 3092 3090 3092 3081 3063 3067 3074 3070 3073 3075 3073 3076 3076 3076 3078 3077 3079 3078 3077 3077 3074
3126 3127 3127 3127 3126 3126 3126 3126 3127 3127 3126 3127 3126 3126 3126 3125 3125 3123 3119 3110 3095 3091 3101 3105 3106 3107 3109 3111 3112 3115 3112 3107 3109 3112 3113 3114 3116 3114 3112 3112 3110 3108 3110 3113 3110 3103 3102 3107 3109 3109 3109 3110 3109 3108 3110 3112 3107 3100 3099 3102 3102 3101 3100 3098 3098 3097 3093 3090 3087 3090 3087 3064 3053 3063 3067 3067 3069 3068 3070 3070 3071 3074 3073 3073 3074 3073 3073 3071
3123 3123 3123 3124 3123 3123 3123 3123 3124 3123 3124 3124 3123 3124 3124 3123 3123 3121 3118 3109 3093 3088 3094 3097 3099 3101 3102 3104 3106 3108 3105 3100 3104 3107 3107 3109 3110 3110 3108 3105 3105 3105 3106 3109 3104 3097 3100 3103 3103 3105 3105 3105 3104 3104 3106 3109 3104 3096 3095 3099 3098 3097 3097 3095 3095 3093 3088 3088 3085 3084 3091 3075 3044 3046 3060 3062 3064 3065 3065 3067 3067 3069 3070 3069 3069 3069 3068 3068
3119 3120 3120 3121 3121 3120 3120 3120 3120 3120 3121 3120 3121 3122 3120 3120 3121 3119 3119 3110 3091 3086 3092 3094 3095 3096 3097 3100 3101 3102 3100 3098 3101 3103 3104 3106 3105 3104 3102 3100 3101 3101 3102 3104 3098 3093 3097 3099 3100 3101 3101 3100 3099 3100 3101 3104 3100 3094 3093 3094 3094 3095 3094 3092 3091 3090 3087 3085 3079 3077 3089 3081 3043 3035 3052 3054 3056 3060 3059 3063 3065 3066 3067 3065 3065 3064 3063 3064
3116 3116 3117 3118 3118 3118 3117 3117 3117 3117 3117 3117 3118 3118 3117 3119 3118 3117 3119 3107 3088 3085 3090 3091 3092 3094 3095 3097 3098 3099 3098 3098 3099 3099 3101 3103 3101 3099 3097 3096 3098 3097 3098 3098 3092 3092 3095 3094 3095 3096 3096 3096 3095 3097 3097 3098 3095 3092 3092 3090 3090 3092 3089 3091 3088 3086 3088 3079 3070 3073 3083 3079 3045 3029 3045 3048 3048 3054 3054 3058 3061 3062 3065 3062 3061 3061 3059 3060
3113 3113 3113 3114 3115 3116 3114 3115 3116 3114 3114 3115 3114 3114 3115 3115 3114 3116 3112 3096 3085 3087 3088 3087 3090 3092 3093 3095 3096 3097 3096 3096 3096 3096 3098 3098 3097 3096 3093 3092 3095 3094 3094 3093 3088 3090 3092 3089 3089 3090 3091 3091 3091 3093 3092 3092 3090 3089 3090 3087 3088 3088 3086 3088 3083 3083 3087 3068 3059 3068 3075 3077 3050 3024 3035 3042 3041 3047 3049 3052 3056 3058 3060 3059 3058 3057 3056 3056
3109 3109 3109 3110 3112 3112 3111 3113 3113 3111 3111 3112 3111 3112 3112 3111 3113 3111 3097 3084 3084 3086 3084 3085 3086 3088 3090 3091 3092 3092 3093 3092 3092 3093 3093 3093 3092 3091 3089 3089 3092 3091 3090 3088 3085 3087 3087 3084 3085 3086 3087 3087 3088 3089 3087 3087 3087 3086 3087 3085 3085 3085 3083 3083 3080 3083 3083 3060 3052 3061 3066 3071 3049 3022 3030 3036 3035 3042 3043 3045 3049 3052 3055 3054 3055 3054 3052 3052
3105 3105 3105 3105 3107 3108 3108 3109 3109 3109 3109 3108 3108 3108 3108 3109 3106 3094 3082 3082 3085 3081 3079 3082 3082 3083 3086 3086 3086 3087 3088 3087 3088 3089 3089 3089 3087 3085 3085 3085 3087 3089 3087 3085 3083 3083 3082 3080 3081 3082 3083 3084 3084 3084 3082 3082 3083 3083 3082 3083 3085 3085 3082 3081 3078 3079 3073 3055 3050 3057 3060 3056 3033 3019 3032 3036 3034 3037 3039 3042 3044 3045 3049 3048 3049 3050 3048 3048
3100 3100 3100 3099 3101 3103 3103 3103 3103 3104 3103 3104 3105 3102 3105 3106 3092 3077 3077 3084 3083 3077 3078 3080 3079 3081 3082 3081 3081 3082 3083 3083 3084 3086 3086 3084 3082 3080 3080 3081 3083 3085 3083 3083 3082 3079 3077 3075 3077 3077 3077 3079 3079 3078 3078 3077 3078 3077 3075 3078 3081 3081 3081 3079 3075 3071 3061 3050 3049 3054 3055 3042 3020 3018 3029 3031 3033 3034 3034 3040 3041 3040 3043 3043 3043 3045 3044 3044
3096 3096 3095 3094 3095 3096 3098 3098 3099 3099 3099 3100 3100 3098 3101 3096 3078 3071 3078 3081 3079 3078 3078 3078 3078 3079 3078 3077 3077 3078 3080 3080 3079 3082 3081 3079 3076 3074 3075 3076 3078 3081 3081 3082 3079 3077 3076 3069 3067 3071 3072 3073 3072 3073 3075 3073 3073 3070 3070 3074 3072 3072 3074 3073 3069 3062 3053 3050 3048 3049 3045 3029 3017 3018 3021 3023 3028 3030 3030 3034 3036 3036 3039 3038 3038 3039 3039 3039
3091 3091 3091 3090 3088 3090 3093 3094 3095 3096 3096 3096 3094 3093 3092 3082 3070 3072 3077 3077 3079 3079 3076 3076 3077 3076 3074 3074 3074 3075 3077 3076 3075 3077 3075 3073 3072 3070 3070 3071 3074 3078 3078 3078 3075 3075 3074 3065 3061 3065 3067 3067 3067 3070 3073 3071 3068 3064 3066 3069 3064 3064 3068 3066 3061 3055 3054 3053 3044 3039 3033 3020 3016 3017 3017 3019 3021 3023 3027 3028 3030 3032 3033 3034 3033 3033 3034 3034
3086 3086 3086 3085 3084 3086 3088 3089 3091 3091 3090 3090 3087 3084 3080 3072 3070 3073 3073 3075 3078 3077 3074 3074 3074 3072 3070 3070 3070 3071 3073 3073 3072 3071 3069 3069 3067 3065 3065 3066 3069 3073 3073 3073 3071 3071 3069 3062 3061 3061 3059 3061 3063 3065 3069 3068 3063 3060 3060 3059 3058 3061 3062 3060 3057 3054 3058 3055 3037 3029 3025 3018 3017 3010 3006 3014 3015 3017 3022 3022 3024 3027 3027 3029 3028 3028 3029 3029
3080 3080 3080 3080 3080 3082 3084 3085 3085 3084 3083 3082 3077 3074 3071 3066 3067 3071 3071 3073 3075 3074 3074 3071 3069 3069 3067 3066 3066 3067 3069 3069 3067 3065 3064 3064 3060 3058 3061 3062 3063 3066 3067 3069 3067 3067 3064 3059 3059 3058 3053 3055 3058 3059 3062 3061 3058 3057 3056 3054 3056 3058 3057 3057 3058 3056 3057 3052 3035 3025 3021 3019 3019 3004 2996 3007 3012 3012 3017 3017 3019 3021 3021 3023 3023 3024 3026 3025
3074 3073 3072 3074 3076 3077 3079 3080 3079 3078 3077 3074 3068 3066 3064 3060 3062 3066 3068 3069 3070 3071 3071 3069 3066 3066 3065 3064 3063 3064 3065 3063 3062 3060 3060 3059 3053 3051 3056 3059 3058 3059 3063 3065 3062 3061 3061 3055 3055 3056 3050 3050 3054 3055 3054 3053 3054 3054 3054 3054 3053 3052 3050 3052 3055 3054 3053 3048 3034 3024 3021 3015 3009 2999 2996 3004 3007 3008 3012 3012 3013 3014 3015 3018 3019 3020 3022 3021
3068 3067 3065 3068 3071 3070 3073 3075 3073 3071 3069 3065 3061 3060 3058 3056 3057 3061 3063 3065 3065 3065 3065 3064 3064 3063 3062 3062 3061 3061 3060 3057 3057 3057 3056 3055 3050 3047 3051 3053 3054 3054 3057 3059 3057 3056 3057 3052 3050 3051 3049 3048 3049 3047 3045 3046 3051 3052 3050 3051 3049 3047 3047 3045 3046 3046 3044 3041 3033 3028 3023 3005 2992 2996 3001 3001 3003 3004 3005 3007 3008 3010 3011 3013 3015 3016 3016 3016
3063 3060 3058 3062 3064 3064 3067 3069 3066 3064 3060 3057 3056 3054 3054 3054 3054 3057 3060 3060 3060 3060 3059 3059 3060 3059 3058 3058 3058 3058 3057 3054 3054 3054 3051 3051 3048 3046 3047 3049 3049 3050 3051 3052 3052 3051 3051 3048 3044 3046 3048 3045 3041 3038 3039 3042 3046 3047 3046 3046 3045 3044 3044 3042 3040 3039 3035 3034 3030 3029 3023 2997 2984 2997 3001 2998 3002 3003 3002 3004 3005 3006 3007 3008 3009 3010 3010 3011
3057 3053 3052 3057 3057 3057 3061 3060 3057 3057 3053 3050 3050 3049 3050 3052 3051 3054 3055 3054 3053 3054 3054 3053 3054 3054 3053 3053 3053 3054 3054 3051 3051 3050 3047 3047 3047 3046 3046 3046 3046 3046 3046 3046 3046 3045 3044 3041 3038 3040 3040 3037 3034 3035 3038 3038 3039 3040 3039 3040 3040 3041 3042 3040 3035 3030 3028 3026 3023 3025 3018 2994 2984 2995 2998 2996 3001 3001 3001 3003 3003 3003 3004 3004 3004 3005 3005 3006
3050 3047 3047 3052 3051 3051 3055 3052 3050 3051 3046 3043 3044 3044 3046 3048 3048 3050 3051 3050 3048 3048 3048 3047 3047 3048 3047 3047 3048 3048 3048 3046 3045 3046 3043 3042 3044 3045 3045 3044 3043 3043 3042 3040 3039 3039 3038 3035 3033 3032 3030 3030 3032 3035 3035 3032 3033 3034 3032 3033 3035 3035 3035 3031 3025 3023 3025 3021 3019 3020 3010 2988 2984 2994 2997 2996 2999 2999 2999 2999 2998 3000 3000 2999 3000 3000 3000 3001
3043 3042 3042 3046 3046 3046 3048 3045 3043 3043 3038 3037 3040 3040 3041 3042 3042 3044 3045 3045 3044 3043 3042 3041 3042 3042 3041 3042 3043 3042 3042 3040 3037 3038 3038 3036 3038 3039 3040 3041 3040 3039 3038 3036 3034 3034 3033 3030 3028 3026 3026 3027 3029 3031 3030 3027 3027 3026 3025 3028 3029 3026 3027 3024 3020 3023 3021 3016 3018 3016 2999 2983 2984 2993 2996 2995 2995 2997 2997 2995 2996 2996 2995 2995 2996 2995 2995 2995
3037 3037 3036 3038 3039 3040 3039 3037 3037 3035 3033 3035 3036 3035 3036 3036 3034 3037 3038 3038 3038 3037 3036 3035 3036 3036 3036 3037 3038 3037 3037 3034 3029 3029 3032 3030 3030 3033 3034 3036 3036 3035 3034 3033 3031 3030 3029 3028 3026 3026 3025 3025 3025 3025 3024 3021 3021 3021 3021 3024 3023 3022 3025 3022 3020 3021 3013 3009 3014 3005 2987 2982 2988 2991 2993 2993 2991 2992 2993 2992 2992 2992 2991 2992 2991 2990 2991 2989
3031 3030 3029 3031 3032 3030 3028 3030 3032 3030 3029 3031 3029 3028 3031 3029 3028 3032 3032 3031 3033 3033 3030 3029 3029 3031 3032 3033 3032 3030 3031 3029 3024 3022 3024 3025 3024 3027 3029 3029 3030 3030 3030 3029 3027 3025 3024 3024 3024 3024 3024 3022 3021 3018 3017 3017 3018 3017 3017 3018 3017 3019 3021 3018 3017 3014 3006 3004 3006 2994 2982 2984 2989 2989 2989 2988 2987 2987 2987 2987 2988 2988 2987 2987 2986 2985 2985 2983
3024 3023 3023 3025 3024 3022 3020 3023 3026 3024 3024 3026 3022 3021 3025 3021 3021 3027 3027 3024 3026 3027 3025 3023 3024 3026 3026 3026 3025 3022 3023 3024 3021 3017 3016 3017 3018 3020 3022 3023 3023 3024 3023 3022 3022 3021 3018 3016 3017 3017 3016 3015 3013 3011 3012 3015 3014 3012 3012 3012 3012 3013 3015 3014 3011 3006 3003 3002 2994 2988 2986 2984 2985 2988 2984 2980 2981 2981 2981 2982 2982 2983 2983 2981 2981 2980 2978 2976
3017 3016 3017 3019 3017 3016 3014 3015 3017 3016 3017 3020 3015 3013 3016 3015 3015 3019 3019 3017 3018 3020 3019 3017 3018 3019 3017 3018 3018 3015 3015 3017 3015 3011 3010 3010 3011 3012 3014 3015 3015 3016 3017 3014 3014 3014 3010 3005 3007 3007 3004 3005 3006 3006 3008 3008 3005 3004 3005 3005 3005 3007 3008 3008 3004 3001 3004 2999 2984 2984 2990 2982 2979 2985 2980 2973 2973 2972 2974 2976 2974 2975 2976 2975 2974 2974 2971 2969
3010 3009 3012 3014 3011 3010 3009 3009 3010 3009 3010 3012 3009 3007 3010 3011 3009 3009 3010 3011 3011 3013 3012 3008 3009 3010 3010 3013 3012 3007 3008 3009 3007 3006 3005 3003 3004 3005 3005 3006 3007 3009 3010 3007 3006 3007 3001 2996 2998 2997 2992 2994 2998 2998 2999 2998 2993 2993 2994 2994 2996 2997 2998 2999 2995 2994 2996 2988 2976 2982 2988 2978 2975 2980 2976 2971 2969 2966 2968 2969 2967 2966 2966 2966 2968 2967 2964 2963
3003 3002 3004 3006 3003 3003 3004 3005 3006 3004 3004 3006 3003 3002 3003 3003 3002 3002 3005 3006 3003 3005 3005 3000 3000 3003 3003 3005 3005 3000 3001 3003 2999 2999 2999 2996 2997 2999 2997 2997 2999 3003 3003 3000 2999 3001 2994 2988 2990 2990 2985 2985 2989 2989 2988 2988 2985 2983 2984 2984 2986 2987 2987 2986 2983 2981 2981 2976 2972 2977 2977 2970 2970 2972 2969 2966 2965 2965 2965 2961 2958 2957 2956 2958 2960 2959 2957 2956
2997 2995 2996 2997 2995 2996 2998 2999 3000 2999 2999 3001 2998 2996 2998 2996 2995 2997 3000 3000 2996 2997 2999 2994 2993 2997 2997 2997 2997 2992 2993 2996 2991 2990 2993 2991 2990 2992 2990 2989 2993 2995 2994 2992 2992 2992 2988 2982 2983 2985 2979 2976 2980 2980 2979 2979 2977 2975 2975 2977 2980 2980 2975 2972 2969 2969 2969 2966 2963 2965 2964 2962 2960 2958 2957 2958 2960 2961 2959 2954 2950 2949 2950 2951 2951 2950 2950 2950
2989 2988 2989 2988 2986 2989 2991 2992 2995 2993 2992 2994 2992 2992 2993 2992 2993 2994 2993 2992 2991 2992 2992 2989 2988 2991 2990 2989 2987 2984 2985 2987 2983 2981 2986 2985 2984 2986 2983 2981 2985 2986 2984 2984 2984 2983 2981 2977 2978 2981 2971 2965 2972 2972 2968 2970 2970 2967 2969 2973 2973 2967 2959 2956 2956 2957 2957 2954 2953 2955 2954 2949 2945 2946 2950 2953 2954 2954 2952 2948 2944 2943 2945 2946 2943 2942 2944 2944
2983 2982 2984 2983 2980 2981 2984 2985 2987 2986 2984 2986 2987 2988 2988 2988 2990 2992 2987 2984 2987 2988 2987 2987 2986 2984 2982 2981 2981 2980 2980 2978 2975 2974 2976 2976 2976 2978 2977 2974 2975 2976 2975 2976 2975 2974 2974 2970 2971 2973 2963 2957 2964 2964 2961 2964 2960 2953 2958 2963 2958 2952 2949 2948 2948 2948 2948 2947 2945 2943 2939 2935 2937 2943 2946 2945 2945 2945 2943 2941 2939 2939 2940 2939 2936 2936 2937 2937